www.pogodaiklimat.ru

Погода и климат >> Архив погоды >> Россия >> Краснодарский край >> Красная Поляна


ПОГОДА в Красной Поляне

  • Прогноз погоды в Красной Поляне
  • Монитор погоды в Красной Поляне
  • Климат города

АРХИВ ПОГОДЫ в Красной Поляне

Время (UTC), дата Ветер
(напр.,м/с)
 
Видим.   Явления Облачность Т
(С)
Тd
(С)
f
(%)
Тe
(С)
Тes
(С)
Комфортность P
(гПа)
Po
(гПа)
Тmin
(С)
Tmax
(С)
R
(мм)
R24
(мм)
S
(см)
09 14.10 ЮЗ 1 9000 м слабый ливневой дождь 10/10 600 м
[Cb cap]
+10.2 +8.8 91 +10 +10 1019.7 953.1
12 14.10 СВ 2 20 км слабый ливневой дождь 10/10 1000 м
[Cb cap]
+11.0 +8.9 87 +10 +10 1018.4 952.1
15 14.10 штиль 0 3300 м ливневой дождь 10/10 1170 м
[Cb cap]
+10.1 +10.1 100 +9 +9 1018.7 952.2 +11.6 3
18 14.10 СВ 1 11 км ливневой дождь 10/10 300 м
[Cb cap]
+9.4 +8.3 93 +9 +9 1019.3 952.6
21 14.10 штиль 0 20 км слабый ливневой дождь 10/10 360 м
[Cb cap]
+7.8 +7.5 98 +7 +7 1020.2 953.0
00 15.10 ЮВ 1 16 км слабый ливневой дождь 10/10 60 м
[Cb cap]
+7.4 +7.4 100 +6 +6 1019.5 952.3
03 15.10 В 1 12 км слабый ливневой дождь 10/10 930 м
[Cb cap]
+7.0 +6.1 94 +6 +6 1020.1 952.7 +7.0 30
06 15.10 В 1 20 км слабый ливневой дождь 10/10 1110 м
[Cb calv]
+7.0 +5.9 93 +6 +6 1021.7 954.2 +6.4
09 15.10 В 1 19 км {ливн. осадки} 9/8 600 м
[Sc Ac As Ci]
+10.3 +6.1 75 +10 +11 1021.4 954.7
12 15.10 З 1 20 км {ливн. осадки} 9/8 600 м
[Sc Ac As]
+12.7 +7.0 68 +13 +14 1020.7 954.6
15 15.10 З 1 20 км 10/10 1050 м
[Sc]
+10.1 +7.9 86 +10 +10 1022.2 955.4 +12.9 7
18 15.10 штиль 0 6000 м слабый ливневой дождь 10/10 600 м
[Cb calv]
+8.4 +8.4 100 +7 +7 1021.9 954.8
21 15.10 СВ 1 19 км слабый ливневой дождь 10/10 600 м
[Cb cap]
+7.2 +6.5 95 +6 +6 1021.4 954.0
00 16.10 В 2 8000 м сильный ливневой дождь 10/10 930 м
[Cb cap]
+6.4 +6.4 100 +4 +4 1016.8 949.5
03 16.10 В 2 10 км сильный ливневой дождь 10/10 600 м
[Cb calv]
+7.0 +7.0 100 +5 +5 1014.1 947.1 +6.2 36
06 16.10 штиль 0 20 км {ливн. осадки} 8/0
[Ci fib]
+8.4 +8.0 97 +7 +10 1012.9 946.3
09 16.10 ЮЗ 1 20 км 3/3 1500 м
[Cu med, cong]
+14.4 +6.0 57 +15 +21 1010.9 945.8
12 16.10 ЮЗ 3 18 км 3/3 1500 м
[Cu med, cong]
+14.7 -0.2 36 +14 +16 1012.7 947.4
15 16.10 С 1 20 км ясно +7.2 +2.5 72 +6 +6 1017.4 950.2 +15.8 2
18 16.10 С 2 20 км ясно +4.9 +0.7 74 +2 +2 1020.8 952.8
21 16.10 С 1 20 км ясно +3.4 +0.1 79 +2 +2 1023.4 954.9
00 17.10 С 1 20 км ясно +2.5 -0.1 83 +1 +1 1024.7 955.9
03 17.10 В 1 20 км 10/0
[Ac As]
+4.0 0.0 75 +3 +3 1026.1 957.5 +2.1
06 17.10 ЮВ 1 16 км 10/10 1500 м
[Sc]
+5.6 +1.3 74 +5 +5 1027.2 958.9
09 17.10 штиль 0 20 км 10/9 1500 м
[Sc Ac As]
+9.4 +4.0 69 +9 +9 1026.5 959.2
12 17.10 ЮЗ 2 20 км 10/9 1000 м
[Sc Ac As]
+12.4 +4.6 59 +12 +12 1024.9 958.4
15 17.10 С 1 20 км 10/10 1500 м
[Sc]
+9.9 +7.7 86 +9 +9 1026.5 959.4 +14.5
18 17.10 С 1 20 км 8/6 1300 м
[Sc Ac As]
+8.8 +7.3 90 +8 +8 1027.4 960.0
21 17.10 СВ 1 20 км 8/5 1000 м
[Sc Ac As]
+6.6 +5.5 93 +5 +5 1028.1 960.1
00 18.10 В 1 20 км 10/10 1500 м
[Sc]
+6.3 +5.6 95 +5 +5 1028.1 960.0
03 18.10 В 1 20 км 10/10 1470 м
[Sc]
+6.6 +5.9 95 +5 +5 1027.6 959.6 +5.5
06 18.10 ЮВ 1 20 км 8/3 1500 м
[Cu hum Ac cast Ci fib]
+9.8 +6.1 78 +9 +11 1026.4 959.2
09 18.10 Ю 1 20 км 9/0
[Cs]
+14.4 +7.2 62 +15 +22 1024.3 958.3
12 18.10 ЮЗ 2 20 км 9/3 960 м
[Sc Ac cast Cs]
+14.0 +9.0 72 +14 +15 1023.5 957.5
15 18.10 штиль 0 17 км 10/4 1000 м
[Sc Ac cast Cs]
+10.0 +9.2 95 +9 +9 1025.0 958.0 +15.3
18 18.10 СВ 1 19 км 10/5 480 м
[Sc Cs]
+9.3 +8.7 96 +9 +9 1025.6 958.4
21 18.10 штиль 0 20 км 6/0
[Cs]
+7.7 +7.0 95 +7 +7 1025.3 957.7
00 19.10 В 1 19 км 8/0
[Cs]
+6.0 +6.0 100 +5 +5 1025.7 957.7
03 19.10 В 1 20 км 9/0
[Cs]
+5.6 +5.6 100 +4 +4 1025.5 957.4 +5.4
06 19.10 ЮВ 1 20 км 3/0
[Cs]
+8.5 +6.5 87 +8 +10 1024.7 957.4
09 19.10 ЮЗ 1 20 км 3/0
[Cs]
+14.8 +7.8 63 +15 +23 1021.7 956.0
12 19.10 СЗ 1 20 км ясно +17.5 +8.4 55 +19 +23 1019.7 954.7
15 19.10 С 2 20 км ясно +12.3 +8.8 79 +11 +11 1021.0 954.8 +19.2
18 19.10 СВ 1 12 км ясно +9.7 +8.0 89 +9 +9 1022.0 955.1
21 19.10 СВ 1 20 км ясно +8.3 +7.1 92 +7 +7 1022.0 954.8
00 20.10 В 1 20 км ясно +6.7 +6.4 98 +5 +5 1021.8 954.2
03 20.10 В 1 20 км ясно +6.3 +5.7 96 +5 +5 1021.9 954.2 +5.9
06 20.10 ЮВ 1 18 км ясно +10.7 +7.0 78 +10 +13 1021.0 954.4
09 20.10 ЮЗ 2 20 км ясно +17.1 +7.5 53 +17 +24 1018.2 953.2
12 20.10 ЮЗ 1 20 км ясно +18.9 +9.7 55 +21 +25 комфорт 1016.9 952.4
15 20.10 С 2 19 км ясно +13.0 +10.4 84 +12 +12 1019.2 953.3 +19.3
18 20.10 СВ 1 17 км ясно +9.8 +8.9 94 +9 +9 1020.7 954.0
21 20.10 В 1 19 км ясно +8.3 +7.7 96 +7 +7 1020.8 953.7
00 21.10 СВ 1 20 км ясно +6.9 +6.6 98 +6 +6 1021.0 953.5
03 21.10 В 1 20 км ясно +7.0 +6.1 94 +6 +6 1020.1 952.7 +6.3
06 21.10 ЮВ 1 20 км 6/0
[Cs]
+10.3 +6.8 79 +10 +12 1019.1 952.5 +6.0

 

Местоположение метеостанции Красная Поляна (Краснодарский край, Россия): широта 43.68 долгота 40.20 высота над уровнем моря 567 м.

В архиве по умолчанию представлена погода в Красной Поляне за последнюю неделю. Архивные данные за месяц целиком и за предыдущие месяцы, начиная с января 2011 года, Вы можете получить, выбрав интересующий диапазон дат из раскрывающегося списка и нажав кнопку "Ввод!".

Внимание! Время в таблицах - всемирное. Для получения местного времени необходимо прибавить поправку, которая в Красной Поляне равна 3 ч.

Смотрите также архив погоды в соседних городах и на ближайших метеорологических станциях:

Погода в Кепше (Краснодарский край, Россия) (14 км)
Погода в Гузерипле (Адыгея, Россия) (36 км)
Погода в Сочи (Краснодарский край, Россия) (36 км)
Погода в Сочи аэропорту (Адлер) (Краснодарский край, Россия) (37 км)
Погода в Псебае (Краснодарский край, Россия) (68 км)
Погода в Шунтуке (Адыгея, Россия) (88 км)
Погода в Горном (Краснодарский край, Россия) (100 км)
Погода в Туапсе (Краснодарский край, Россия) (102 км)
Погода в Майкопе (Адыгея, Россия) (105 км)
Погода в Зеленчукской (Карачаево-Черкессия, Россия) (112 км)

Пояснения к столбцам:

Ветер - указаны скорость ветра в м/с - средняя за 10 мин, порывы в срок и между сроками (в фигурных скобках) и направление, откуда дует ветер: С - северный, СВ - северо-восточный, В - восточный, ЮВ - юго-восточный, Ю - южный, ЮЗ - юго-западный, З - западный, СЗ - северо-западный.
Видимость - горизонтальная дальность видимости в метрах или километрах. При видимости от 1 до 10 км при отсутствии осадков обычно наблюдается дымка, при ухудшении видимости до 1 км и менее - туман. В сухую погоду видимость может ухудшаться дымом, пылью или мглою.
Явления - указаны атмосферные явления, наблюдавшиеся в срок или в последний час перед сроком; фигурными скобками обозначены явления, наблюдавшиеся между сроками (за 1-3 часа до срока); квадратными скобками обозначены град или гололедные отложения с указанием их диаметра в мм.
Облачность - указаны через наклонную черту общая и нижняя облачность в баллах и высота нижней границы облаков в метрах; квадратными скобками обозначены формы облаков: Ci - перистые, Cs - перисто-слоистые, Cc - перисто-кучевые, Ac - высококучевые, As - высокослоистые, Sc - слоисто-кучевые, Ns - слоисто-дождевые, Cu - кучевые, Cb - кучево-дождевые. Подробнее классификацию облаков см. в Атласе облаков (PDF).
T - Температура воздуха - температура, измеренная на высоте 2 м над землей.
Td - Температура точки росы - температура, при понижении до которой содержащийся в воздухе водяной пар достигнет насыщения.
f - Относительная влажность воздуха - влажноcть воздуха, измеренная на высоте 2 м над землей.
Te - Эффективная температура - температура, которую ощущает одетый по сезону человек в тени. Характеристика душности погоды. При расчете учитывается влияние влажности воздуха и скорости ветра на теплоощущения человека.
Tes - Эффективная температура на солнце - температура, которую ощущает человек, с поправкой на солнечный нагрев. Характеристика знойности погоды. Зависит от высоты солнца над горизонтом, облачности и скорости ветра. Ночью, в пасмурную погоду, а также при ветре 12 м/с и более поправка равна нулю.
P - Атмосферное давление - приведенное к уровню моря атмосферное давление.
Po - Атмосферное давление - измеренное на уровне метеостанции атмосферное давление.
Tmin - Минимальная температура - минимум температуры воздуха на высоте 2 м над землей.
Tmax - Максимальная температура - максимум температуры воздуха на высоте 2 м над землей.
R - Количество осадков - Количество выпавших осадков за период времени, мм. При наведении курсора мыши на число - период времени, за который выпало указанное количество осадков.
R24 - Количество осадков - Количество выпавших осадков за 24 часа, мм.
S - Снежный покров - Высота снежного покрова, см. При наведении курсора мыши на число - состояние снежного покрова и степень покрытия местности в баллах.